This is the latest recevied weather packets stored in our database for station/object N0ZRD-10. If no packets are shown the sender has not sent any weather packets the latest 10 day(s).
| Time | Temp. | Humidity | Pressure | Rain* | Wind** | Luminosity | Snow |
|---|---|---|---|---|---|---|---|
| 1777953409 | 3.89° C | 48% | - | 0 mm | - | - | - |
| 1777952808 | 4.44° C | 50% | - | 0 mm | - | - | - |
| 1777952207 | 4.44° C | 48% | - | 0 mm | - | - | - |
| 1777951606 | 4.44° C | 48% | - | 0 mm | - | - | - |
| 1777951005 | 4.44° C | 46% | - | 0 mm | - | - | - |
| 1777950404 | 5° C | 46% | - | 0 mm | - | - | - |
| 1777949803 | 5.56° C | 47% | - | 0 mm | - | - | - |
| 1777949202 | 5° C | 45% | - | 0 mm | - | - | - |
| 1777948601 | 5° C | 43% | - | 0 mm | - | - | - |
| 1777948000 | 5.56° C | 45% | - | 0 mm | - | - | - |
| 1777947399 | 5.56° C | 50% | - | 0 mm | - | - | - |
| 1777946798 | 5.56° C | 48% | - | 0 mm | - | - | - |
| 1777946197 | 5.56° C | 43% | - | 0 mm | - | - | - |
| 1777945596 | 6.11° C | 46% | - | 0 mm | - | - | - |
| 1777944995 | 5.56° C | 44% | - | 0 mm | - | - | - |
| 1777944394 | 5.56° C | 40% | - | 0 mm | - | - | - |
| 1777943192 | 5.56° C | 45% | - | 0 mm | - | - | - |
| 1777941989 | 5.56° C | 42% | - | 0 mm | - | - | - |
| 1777941388 | 6.11° C | 41% | - | 0 mm | - | - | - |
| 1777940789 | 6.11° C | 44% | - | 0 mm | - | - | - |
| 1777940188 | 6.11° C | 42% | - | 0 mm | - | - | - |
| 1777939586 | 6.11° C | 41% | - | 0 mm | - | - | - |
| 1777938986 | 6.11° C | 38% | - | 0 mm | - | - | - |
| 1777938383 | 6.11° C | 41% | - | 0 mm | - | - | - |
| 1777937782 | 6.11° C | 39% | - | 0 mm | - | - | - |
* Rain latest hour (hover to see other rain measurements)
** Current wind speed in m/s (hover to see current wind gust speed)